| time (UTC) | temp F | wind direction | speed MPH | gust MPH | rain 1hr in | rain 24hr in | rain mn in | humidity % | barometer mb |
| 20260906115353 | 62 | 30 | 0.0 | 0.0 | 0.00 | 0.00 | 0.00 | 90 | 1014.5 |
| 20260906114354 | 62 | 30 | 0.0 | 0.0 | 0.00 | 0.00 | 0.00 | 90 | 1014.4 |
| 20260906113351 | 62 | 30 | 0.0 | 0.0 | 0.00 | 0.03 | 0.00 | 89 | 1014.4 |
| 20260906112330 | 62 | 30 | 0.0 | 0.0 | 0.00 | 0.03 | 0.00 | 89 | 1014.3 |
| 20260906111354 | 62 | 30 | 0.0 | 0.0 | 0.00 | 0.06 | 0.00 | 88 | 1014.2 |
| 20260906110322 | 62 | 30 | 0.0 | 0.0 | 0.00 | 0.06 | 0.00 | 87 | 1014.2 |
| 20260906105312 | 63 | 30 | 0.0 | 0.0 | 0.00 | 0.08 | 0.00 | 87 | 1014.2 |
| 20260906104251 | 63 | 30 | 0.0 | 0.0 | 0.00 | 0.10 | 0.00 | 87 | 1014.2 |
| 20260906103314 | 63 | 30 | 0.0 | 0.0 | 0.00 | 0.11 | 0.00 | 86 | 1014.2 |
| 20260906102319 | 63 | 30 | 0.0 | 0.0 | 0.00 | 0.13 | 0.00 | 86 | 1014.1 |
| 20260906101332 | 63 | 30 | 0.0 | 0.0 | 0.00 | 0.14 | 0.00 | 86 | 1014.0 |
| 20260906094037 | 64 | 31 | 0.0 | 0.0 | 0.00 | 0.18 | 0.00 | 84 | 1013.8 |
| 20260906093056 | 65 | 31 | 0.0 | 0.0 | 0.00 | 0.19 | 0.00 | 83 | 1013.8 |
| 20260906092044 | 65 | 31 | 0.0 | 0.0 | 0.00 | 0.24 | 0.00 | 82 | 1013.8 |
| 20260906091039 | 65 | 31 | 0.0 | 0.0 | 0.00 | 0.27 | 0.00 | 81 | 1013.8 |
| 20260906090058 | 66 | 31 | 0.0 | 0.0 | 0.00 | 0.27 | 0.00 | 81 | 1013.6 |
| 20260906085113 | 66 | 30 | 0.0 | 0.0 | 0.00 | 0.27 | 0.00 | 80 | 1013.5 |
| 20260906084100 | 67 | 30 | 0.0 | 0.0 | 0.00 | 0.28 | 0.00 | 79 | 1013.5 |
| 20260906083054 | 67 | 31 | 0.0 | 1.0 | 0.00 | 0.29 | 0.00 | 80 | 1013.6 |
| 20260906082109 | 67 | 31 | 0.0 | 0.0 | 0.00 | 0.36 | 0.00 | 79 | 1013.6 |
| 20260906081036 | 68 | 29 | 0.0 | 0.0 | 0.00 | 0.39 | 0.00 | 78 | 1013.5 |
| 20260906080032 | 68 | 29 | 0.0 | 0.0 | 0.00 | 0.39 | 0.00 | 78 | 1013.5 |
| 20260906075024 | 68 | 29 | 0.0 | 1.0 | 0.00 | 0.39 | 0.00 | 77 | 1013.5 |
| 20260906074004 | 69 | 31 | 0.0 | 0.0 | 0.00 | 0.39 | 0.00 | 76 | 1013.4 |
| 20260906072958 | 69 | 31 | 0.0 | 0.0 | 0.00 | 0.39 | 0.00 | 76 | 1013.4 |
| 20260906070810 | 69 | 31 | 0.0 | 0.0 | 0.00 | 0.39 | 0.00 | 75 | 1013.1 |
| 20260906065807 | 69 | 12 | 0.0 | 0.0 | 0.00 | 0.39 | 0.00 | 75 | 1013.3 |
| 20260906064743 | 69 | 12 | 0.0 | 0.0 | 0.00 | 0.39 | 0.00 | 75 | 1013.4 |
| 20260906063734 | 69 | 12 | 0.0 | 0.0 | 0.00 | 0.39 | 0.00 | 75 | 1013.4 |
| 20260906062751 | 69 | 13 | 0.0 | 0.0 | 0.00 | 0.39 | 0.00 | 76 | 1013.4 |
| 20260906061729 | 69 | 13 | 0.0 | 0.0 | 0.00 | 0.39 | 0.00 | 75 | 1013.5 |
| 20260906055551 | 69 | 13 | 0.0 | 0.0 | 0.00 | 0.39 | 0.00 | 77 | 1013.2 |
| 20260906054539 | 69 | 13 | 0.0 | 0.0 | 0.00 | 0.39 | 0.00 | 78 | 1013.1 |
| 20260906053511 | 68 | 13 | 0.0 | 2.0 | 0.00 | 0.39 | 0.00 | 80 | 1013.0 |
| 20260906052436 | 68 | 9 | 0.0 | 0.0 | 0.00 | 0.39 | 0.00 | 81 | 1012.9 |
| 20260906051429 | 69 | 9 | 0.0 | 0.0 | 0.00 | 0.39 | 0.00 | 82 | 1012.9 |
| 20260906050445 | 69 | 9 | 0.0 | 0.0 | 0.00 | 0.39 | 0.00 | 82 | 1012.7 |
| 20260906045426 | 69 | 9 | 0.0 | 0.0 | 0.00 | 0.39 | 0.00 | 83 | 1012.7 |
| 20260906044358 | 69 | 9 | 0.0 | 0.0 | 0.00 | 0.39 | 0.00 | 83 | 1012.6 |
| 20260906043409 | 70 | 9 | 0.0 | 0.0 | 0.00 | 0.39 | 0.00 | 83 | 1012.4 |
| 20260906042339 | 70 | 9 | 0.0 | 0.0 | 0.00 | 0.39 | 0.00 | 84 | 1012.4 |
| 20260906041337 | 70 | 5 | 0.0 | 0.0 | 0.00 | 0.39 | 0.00 | 84 | 1012.4 |
| 20260906040332 | 70 | 5 | 0.0 | 0.0 | 0.00 | 0.39 | 0.00 | 83 | 1012.4 |
| 20260906035306 | 71 | 5 | 0.0 | 0.0 | 0.00 | 0.39 | 0.40 | 83 | 1012.4 |
| 20260906034236 | 71 | 5 | 0.0 | 0.0 | 0.00 | 0.39 | 0.40 | 84 | 1012.5 |
| 20260906033236 | 71 | 5 | 0.0 | 0.0 | 0.00 | 0.39 | 0.40 | 84 | 1012.5 |
| 20260906032237 | 72 | 5 | 0.0 | 0.0 | 0.00 | 0.39 | 0.40 | 84 | 1012.5 |
| 20260906031219 | 72 | 5 | 0.0 | 0.0 | 0.00 | 0.39 | 0.40 | 85 | 1012.4 |
| 20260906030231 | 72 | 5 | 0.0 | 0.0 | 0.00 | 0.39 | 0.40 | 85 | 1012.4 |
| 20260906025213 | 72 | 5 | 0.0 | 0.0 | 0.00 | 0.39 | 0.40 | 86 | 1012.4 |
| 20260906024148 | 73 | 5 | 0.0 | 0.0 | 0.00 | 0.39 | 0.40 | 85 | 1012.5 |
| 20260906023115 | 73 | 355 | 0.0 | 1.0 | 0.00 | 0.39 | 0.40 | 86 | 1012.4 |
| 20260906022052 | 74 | 355 | 0.0 | 0.0 | 0.00 | 0.39 | 0.40 | 88 | 1012.3 |
| 20260906021102 | 74 | 355 | 0.0 | 0.0 | 0.00 | 0.39 | 0.40 | 88 | 1012.2 |
| 20260906015015 | 74 | 355 | 0.0 | 0.0 | 0.00 | 0.39 | 0.40 | 88 | 1012.1 |
| 20260906014025 | 75 | 355 | 0.0 | 0.0 | 0.00 | 0.39 | 0.40 | 87 | 1011.8 |
| 20260906013047 | 75 | 355 | 0.0 | 0.0 | 0.00 | 0.39 | 0.40 | 87 | 1011.7 |
| 20260906010940 | 76 | 345 | 0.0 | 0.0 | 0.00 | 0.39 | 0.40 | 87 | 1011.5 |
| 20260906005958 | 76 | 345 | 0.0 | 0.0 | 0.00 | 0.39 | 0.40 | 86 | 1011.4 |
| 20260906003836 | 77 | 262 | 0.0 | 0.0 | 0.00 | 0.39 | 0.40 | 85 | 1011.0 |
| 20260906002847 | 77 | 262 | 0.0 | 0.0 | 0.00 | 0.39 | 0.40 | 85 | 1011.1 |
| 20260906001857 | 78 | 262 | 0.0 | 0.0 | 0.00 | 0.39 | 0.40 | 84 | 1011.1 |
| 20260906000907 | 78 | 262 | 0.0 | 0.0 | 0.00 | 0.39 | 0.40 | 83 | 1011.1 |
| 20260905235926 | 78 | 259 | 0.0 | 0.0 | 0.00 | 0.39 | 0.40 | 83 | 1011.1 |
| 20260905234939 | 79 | 259 | 0.0 | 0.0 | 0.00 | 0.39 | 0.40 | 82 | 1011.2 |
| 20260905232841 | 80 | 259 | 0.0 | 0.0 | 0.00 | 0.39 | 0.40 | 80 | 1011.0 |
| 20260905231834 | 80 | 259 | 0.0 | 0.0 | 0.00 | 0.39 | 0.40 | 80 | 1011.1 |
| 20260905230841 | 80 | 259 | 0.0 | 0.0 | 0.00 | 0.39 | 0.40 | 80 | 1010.6 |
| 20260905224657 | 80 | 259 | 0.0 | 0.0 | 0.00 | 0.39 | 0.40 | 79 | 1010.3 |
| 20260905223655 | 80 | 259 | 0.0 | 0.0 | 0.00 | 0.39 | 0.40 | 78 | 1010.3 |
| 20260905222654 | 80 | 259 | 0.0 | 0.0 | 0.00 | 0.39 | 0.40 | 78 | 1010.2 |
| 20260905220533 | 81 | 259 | 0.0 | 1.0 | 0.00 | 0.39 | 0.40 | 77 | 1010.4 |
| 20260905215517 | 81 | 259 | 0.0 | 0.0 | 0.00 | 0.39 | 0.40 | 76 | 1010.5 |
| 20260905214456 | 81 | 259 | 0.0 | 2.0 | 0.00 | 0.39 | 0.40 | 76 | 1010.4 |
| 20260905213421 | 81 | 259 | 0.0 | 1.0 | 0.00 | 0.39 | 0.40 | 76 | 1010.3 |
| 20260905212432 | 81 | 259 | 0.0 | 0.0 | 0.00 | 0.39 | 0.40 | 75 | 1010.4 |
| 20260905211407 | 82 | 258 | 0.0 | 2.0 | 0.00 | 0.39 | 0.40 | 75 | 1010.4 |
| 20260905210418 | 82 | 259 | 0.0 | 0.0 | 0.00 | 0.39 | 0.40 | 74 | 1010.4 |
| 20260905205401 | 82 | 259 | 0.0 | 0.0 | 0.00 | 0.39 | 0.40 | 75 | 1010.4 |
| 20260905204330 | 82 | 259 | 0.0 | 0.0 | 0.00 | 0.39 | 0.40 | 74 | 1010.5 |
| 20260905203344 | 82 | 259 | 0.0 | 0.0 | 0.00 | 0.39 | 0.40 | 75 | 1010.8 |
| 20260905202334 | 82 | 259 | 0.0 | 0.0 | 0.00 | 0.39 | 0.40 | 73 | 1010.9 |
| 20260905201323 | 81 | 259 | 0.0 | 2.0 | 0.00 | 0.39 | 0.40 | 73 | 1011.0 |
| 20260905200331 | 81 | 254 | 0.0 | 1.0 | 0.00 | 0.39 | 0.40 | 72 | 1011.0 |
| 20260905195333 | 81 | 254 | 0.0 | 1.0 | 0.00 | 0.39 | 0.40 | 74 | 1011.0 |
| 20260905194332 | 81 | 254 | 0.0 | 1.0 | 0.00 | 0.39 | 0.40 | 75 | 1011.1 |
| 20260905193311 | 81 | 254 | 0.0 | 0.0 | 0.00 | 0.39 | 0.40 | 75 | 1011.2 |
| 20260905191201 | 81 | 254 | 0.0 | 0.0 | 0.00 | 0.39 | 0.40 | 75 | 1011.4 |
| 20260905190136 | 81 | 254 | 0.0 | 2.0 | 0.00 | 0.39 | 0.40 | 76 | 1011.5 |
| 20260905185150 | 80 | 254 | 0.0 | 0.0 | 0.00 | 0.39 | 0.40 | 77 | 1011.7 |
| 20260905184204 | 80 | 254 | 0.0 | 0.0 | 0.00 | 0.39 | 0.40 | 77 | 1011.8 |
| 20260905183135 | 80 | 254 | 0.0 | 0.0 | 0.00 | 0.39 | 0.40 | 75 | 1011.9 |
| 20260905175821 | 80 | 69 | 0.0 | 0.0 | 0.00 | 0.39 | 0.40 | 76 | 1011.9 |
| 20260905174805 | 80 | 69 | 0.0 | 0.0 | 0.00 | 0.39 | 0.40 | 76 | 1011.8 |
| 20260905171523 | 80 | 69 | 0.0 | 0.0 | 0.00 | 0.48 | 0.40 | 76 | 1012.1 |
| 20260905170452 | 80 | 69 | 0.0 | 1.0 | 0.00 | 0.48 | 0.40 | 76 | 1012.3 |
| 20260905165516 | 80 | 126 | 0.0 | 0.0 | 0.00 | 0.52 | 0.40 | 78 | 1012.2 |
| 20260905163406 | 79 | 193 | 0.0 | 0.0 | 0.00 | 0.54 | 0.40 | 81 | 1012.0 |
| 20260905162425 | 78 | 193 | 0.0 | 0.0 | 0.00 | 0.54 | 0.40 | 81 | 1012.2 |
| 20260905160249 | 78 | 194 | 0.0 | 0.0 | 0.00 | 0.54 | 0.40 | 82 | 1012.0 |
| 20260905155235 | 77 | 194 | 0.0 | 0.0 | 0.00 | 0.54 | 0.40 | 83 | 1012.0 |
| 20260905154202 | 76 | 194 | 0.0 | 0.0 | 0.00 | 0.54 | 0.40 | 86 | 1011.8 |
| 20260905153158 | 74 | 194 | 0.0 | 0.0 | 0.00 | 0.54 | 0.40 | 89 | 1011.8 |
| 20260905152131 | 73 | 194 | 0.0 | 0.0 | 0.00 | 0.54 | 0.40 | 94 | 1011.9 |
| 20260905151111 | 72 | 194 | 0.0 | 1.0 | 0.00 | 0.54 | 0.40 | 96 | 1011.7 |
| 20260905150047 | 72 | 194 | 0.0 | 0.0 | 0.00 | 0.54 | 0.40 | 96 | 1011.7 |
| 20260905145059 | 71 | 194 | 0.0 | 0.0 | 0.00 | 0.54 | 0.40 | 96 | 1011.8 |
| 20260905144035 | 71 | 194 | 0.0 | 0.0 | 0.00 | 0.54 | 0.40 | 97 | 1011.8 |
| 20260905143013 | 70 | 194 | 0.0 | 0.0 | 0.00 | 0.54 | 0.40 | 96 | 1011.6 |
| 20260905142021 | 70 | 194 | 0.0 | 0.0 | 0.00 | 0.54 | 0.40 | 97 | 1011.6 |
| 20260905141032 | 69 | 194 | 0.0 | 0.0 | 0.00 | 0.54 | 0.40 | 96 | 1011.3 |
| 20260905140043 | 69 | 194 | 0.0 | 0.0 | 0.00 | 0.54 | 0.40 | 97 | 1011.2 |
| 20260905135050 | 69 | 194 | 0.0 | 0.0 | 0.00 | 0.54 | 0.40 | 96 | 1011.5 |
| 20260905134046 | 69 | 194 | 0.0 | 0.0 | 0.00 | 0.54 | 0.40 | 96 | 1011.7 |
| 20260905133102 | 69 | 194 | 0.0 | 0.0 | 0.00 | 0.54 | 0.40 | 96 | 1011.8 |
| 20260905132104 | 68 | 194 | 0.0 | 0.0 | 0.00 | 0.54 | 0.40 | 96 | 1011.7 |
| 20260905131043 | 68 | 194 | 0.0 | 0.0 | 0.00 | 0.54 | 0.40 | 96 | 1011.9 |
| 20260905123729 | 68 | 194 | 0.0 | 0.0 | 0.00 | 0.54 | 0.40 | 96 | 1012.1 |
| 20260905120440 | 68 | 194 | 0.0 | 0.0 | 0.05 | 0.54 | 0.40 | 96 | 1012.5 |